Location: Chervonnoye
(48.6000°N, 34.4000°E)
Time: 20:26:15
(UTC+00:00)

RS-44 - Pass Details

Date: 07 December 2021
Orbit: 1175 x 1510 km, 82.5° (Epoch: 19 January)

Event Time Altitude Azimuth Distance (km) Brightness Sun altitude
Rises 02:49:38 0° 352° (N) 4,165 ? -23.9°
Reaches altitude 10° 02:52:26 10° 359° (N) 3,231 ? -23.5°
Maximum altitude 02:59:42 46° 71° (ENE) 1,711 ? -22.3°
Drops below altitude 10° 03:07:26 10° 143° (SE) 3,445 ? -21.0°
Sets 03:10:30 0° 150° (SSE) 4,463 ? -20.5°
